Lanai City, HI

2:10 PM HST on July 24, 2017 (GMT -1000)
Lanai City

Weather History for PHNY - November, 2012

Change the Weather History Date:

Wednesday, November 14, 2012

  Actual Average Record
Temperature  
Mean Temperature 74 °F -  
Max Temperature 81 °F 79 °F 86 °F (2014)
Min Temperature 68 °F 63 °F 33 °F (1996)
Cooling Degree Days 10    
Growing Degree Days 24 (Base 50)    
Moisture  
Dew Point 61 °F    
Average Humidity 69    
Maximum Humidity 81    
Minimum Humidity 45    
Precipitation  
Precipitation 0.00 in - - ()
Sea Level Pressure  
Sea Level Pressure 30.08 in    
Wind  
Wind Speed 13 mph (NE)    
Max Wind Speed 24 mph    
Max Gust Speed -    
Visibility 10 miles    
Events      
Averages and records for this station are not official NWS values.
T = Trace of Precipitation, MM = Missing Value Source: NWS Daily Summary

Daily Weather History Graph

Daily Weather History Graph

Search for Another Location

Airport or City:

Trip Planner

Search our weather history database for the weather conditions in past years. The results will help you decide how hot, cold, wet, or windy it might be!

Date:

Astronomy

Nov. 14, 2012 Rise Set
Actual Time 6:37 AM HST 5:46 PM HST
Civil Twilight 6:14 AM HST 6:10 PM HST
Nautical Twilight 5:47 AM HST 6:36 PM HST
Astronomical Twilight 5:21 AM HST 7:03 PM HST
Moon 7:32 AM HST (11/14) 6:54 PM HST (11/14)
Length of Visible Light 11h 55m
Length of Day
11h 09m
New Moon, 2% of the Moon is Illuminated
Nov 14
New Moon
Nov 20
First Quarter
Nov 28
Full
Dec 6
Last Quarter
Dec 12
New

Hourly Weather History & Observations

Time (HST) Temp. Heat Index Dew Point Humidity Pressure Visibility Wind Dir Wind Speed Gust Speed Precip Events Conditions
12:56 AM 68.9 °F - 61.9 °F 78% 30.10 in 10.0 mi East 6.9 mph - N/A   Clear
1:56 AM 68.9 °F - 61.9 °F 78% 30.09 in 10.0 mi NNE 13.8 mph - N/A   Partly Cloudy
2:56 AM 68.0 °F - 61.0 °F 78% 30.07 in 10.0 mi ENE 11.5 mph - N/A   Clear
3:56 AM 68.9 °F - 61.0 °F 76% 30.08 in 10.0 mi East 8.1 mph - N/A   Clear
4:56 AM 68.0 °F - 61.9 °F 81% 30.09 in 10.0 mi NE 11.5 mph - N/A   Partly Cloudy
5:56 AM 68.0 °F - 61.9 °F 81% 30.10 in 10.0 mi NE 15.0 mph - N/A   Partly Cloudy
6:56 AM 68.0 °F - 61.9 °F 81% 30.13 in 10.0 mi ENE 6.9 mph - N/A   Clear
7:56 AM 72.9 °F - 63.0 °F 71% 30.12 in 10.0 mi ENE 10.4 mph - N/A   Clear
8:56 AM 74.8 °F - 61.9 °F 64% 30.12 in 10.0 mi NE 16.1 mph - N/A   Partly Cloudy
9:56 AM 74.8 °F - 63.0 °F 66% 30.12 in 10.0 mi NE 13.8 mph - N/A   Scattered Clouds
11:56 AM 79.9 °F - 59.9 °F 50% 30.07 in 10.0 mi NE 20.7 mph - N/A   Partly Cloudy
12:56 PM 79.0 °F - 59.9 °F 52% 30.05 in 10.0 mi NE 19.6 mph - N/A   Partly Cloudy
1:56 PM 81.0 °F 81.9 °F 61.9 °F 52% 30.03 in 10.0 mi NE 24.2 mph - N/A   Clear
2:56 PM 81.0 °F 81.1 °F 57.9 °F 45% 30.02 in 10.0 mi NE 23.0 mph - N/A   Clear
3:56 PM 79.9 °F - 57.9 °F 47% 30.03 in 10.0 mi ENE 17.3 mph - N/A   Clear
4:56 PM 75.9 °F - 61.9 °F 62% 30.04 in 10.0 mi NE 19.6 mph - N/A   Clear
5:56 PM 70.9 °F - 59.9 °F 68% 30.06 in 10.0 mi ENE 17.3 mph - N/A   Clear
6:56 PM 70.0 °F - 61.9 °F 75% 30.07 in 10.0 mi NE 18.4 mph - N/A   Clear
7:56 PM 70.0 °F - 63.0 °F 78% 30.09 in 10.0 mi NE 19.6 mph - N/A   Clear
8:56 PM 70.9 °F - 61.0 °F 71% 30.10 in 10.0 mi East 9.2 mph - N/A   Clear
9:56 PM 70.0 °F - 61.9 °F 75% 30.09 in 10.0 mi NNE 12.7 mph - N/A   Clear
10:56 PM 68.9 °F - 63.0 °F 81% 30.09 in 10.0 mi NE 8.1 mph - N/A   Clear
11:56 PM 68.9 °F - 61.9 °F 78% 30.09 in 10.0 mi NE 10.4 mph - N/A   Clear